Tracking 23764 objects as of 17-Oct-2021
HD Live streaming from Space Station
objects crossing your sky now

STARLINK-3083

Track STARLINK-3083 now!
10-day predictions
STARLINK-3083 is classified as:


NORAD ID: 49158
Int'l Code: 2021-082AE
Perigee: 364.1 km
Apogee: 369.5 km
Inclination: 70.0 °
Period: 91.7 minutes
Semi major axis: 6737 km
RCS: Unknown
Launch date: September 14, 2021
Source: United States (US)
Launch site: AIR FORCE WESTERN TEST RANGE (AFWTR)
aabbcc
Your satellite tracking list
Your tracking list is empty




NASA's NSSDC Master Catalog

Two Line Element Set (TLE):
1 49158U 21082AE  21290.50001157 -.00020571  00000-0 -17100-3 0  9992
2 49158  70.0018  33.0180 0003982 289.0567  24.6926 15.69740212  6449
Source of the keplerian elements: AFSPC